Weather History for Newport News, VA

Change the Weather History Date:

Thursday, February 14, 2013

  Actual Average Record
Temperature  
Mean Temperature 44 °F -  
Max Temperature 51 °F 47 °F 80 °F (1951)
Min Temperature 37 °F 29 °F 16 °F (1979)
Degree Days  
Heating Degree Days 21    
Moisture  
Dew Point 33 °F    
Average Humidity 66    
Maximum Humidity 82    
Minimum Humidity 39    
Precipitation  
Precipitation 0.00 in - - ()
Sea Level Pressure  
Sea Level Pressure 29.95 in    
Wind  
Wind Speed 7 mph (WNW)    
Max Wind Speed 13 mph    
Max Gust Speed 20 mph    
Visibility 9 miles    
Events      
Averages and records for this station are not official NWS values.
T = Trace of Precipitation, MM = Missing Value Source: NWS Daily Summary

Daily Weather History Graph

Daily Weather History Graph

Search for Another Location

Airport:

Trip Planner

Search our weather history database for the weather conditions in past years. The results will help you decide how hot, cold, wet, or windy it might be!

Date:

Astronomy

Feb. 14, 2013 Rise Set
Actual Time 6:55 AM EST 5:45 PM EST
Civil Twilight 6:28 AM EST 6:11 PM EST
Nautical Twilight 5:58 AM EST 6:42 PM EST
Astronomical Twilight 5:28 AM EST 7:12 PM EST
Moon 9:04 AM EST (2/14) 10:37 PM EST (2/14)
Length of Visible Light 11h 42m
Length of Day
10h 49m
Waxing Crescent, 21% of the Moon is Illuminated
Feb 14
Waxing Crescent
Feb 17
First Quarter
Feb 25
Full
Mar 4
Last Quarter
Mar 11
New

Hourly Weather History & Observations

Time (EST) Temp. Windchill Dew Point Humidity Pressure Visibility Wind Dir Wind Speed Gust Speed Precip Events Conditions
12:31 AM 44.6 °F 38.8 °F 37.4 °F 76% 29.77 in 10.0 mi NNW 11.5 mph - N/A   Overcast
12:54 AM 44.1 °F 38.1 °F 37.0 °F 76% 29.79 in 10.0 mi NW 11.5 mph 17.3 mph N/A   Overcast
1:06 AM 44.6 °F 39.7 °F 35.6 °F 71% 29.79 in 10.0 mi NW 9.2 mph 19.6 mph N/A   Overcast
1:16 AM 44.6 °F 40.7 °F 35.6 °F 71% 29.80 in 10.0 mi NNW 6.9 mph - N/A   Overcast
1:42 AM 42.8 °F 36.2 °F 35.6 °F 76% 29.82 in 10.0 mi NW 12.7 mph - N/A   Mostly Cloudy
1:54 AM 43.0 °F 38.2 °F 36.0 °F 76% 29.83 in 10.0 mi NW 8.1 mph - N/A   Overcast
2:54 AM 42.1 °F 37.7 °F 34.0 °F 73% 29.85 in 10.0 mi NNW 6.9 mph - N/A   Overcast
3:31 AM 41.0 °F 35.2 °F 33.8 °F 76% 29.86 in 9.0 mi NNW 9.2 mph - N/A   Scattered Clouds
3:54 AM 39.9 °F 36.7 °F 33.1 °F 77% 29.88 in 8.0 mi WNW 4.6 mph - N/A   Mostly Cloudy
4:08 AM 39.2 °F - 33.8 °F 81% 29.88 in 8.0 mi Calm Calm - N/A   Scattered Clouds
4:54 AM 37.9 °F 33.5 °F 32.0 °F 79% 29.92 in 6.0 mi NW 5.8 mph - N/A   Haze
5:54 AM 37.0 °F 34.5 °F 32.0 °F 82% 29.94 in 5.0 mi NW 3.5 mph - N/A   Haze
6:54 AM 37.0 °F - 30.9 °F 79% 29.97 in 4.0 mi Calm Calm - N/A   Haze
7:54 AM 39.0 °F - 32.0 °F 76% 29.99 in 4.0 mi Calm Calm - N/A   Haze
8:54 AM 44.1 °F 39.0 °F 32.0 °F 63% 30.01 in 10.0 mi NNW 9.2 mph - N/A   Clear
9:54 AM 48.0 °F - 32.0 °F 54% 30.03 in 10.0 mi NNE 6.9 mph - N/A   Clear
10:54 AM 48.9 °F - 30.0 °F 48% 30.03 in 10.0 mi Variable 4.6 mph - N/A   Clear
11:54 AM 50.0 °F - 28.9 °F 44% 30.03 in 10.0 mi Variable 4.6 mph - N/A   Partly Cloudy
12:54 PM 48.9 °F - 28.9 °F 46% 30.01 in 10.0 mi Calm Calm - N/A   Mostly Cloudy
1:54 PM 51.1 °F - 28.0 °F 41% 30.01 in 10.0 mi WSW 8.1 mph - N/A   Scattered Clouds
2:54 PM 51.1 °F - 27.0 °F 39% 30.01 in 10.0 mi SW 5.8 mph - N/A   Clear
3:54 PM 50.0 °F - 28.0 °F 43% 30.01 in 10.0 mi Calm Calm - N/A   Partly Cloudy
4:54 PM 50.0 °F - 30.0 °F 46% 30.01 in 10.0 mi West 4.6 mph - N/A   Mostly Cloudy
5:54 PM 45.0 °F 41.8 °F 33.1 °F 63% 30.02 in 10.0 mi ESE 5.8 mph - N/A   Clear
6:54 PM 42.1 °F - 33.1 °F 70% 30.04 in 9.0 mi Calm Calm - N/A   Clear
7:54 PM 41.0 °F - 32.0 °F 70% 30.04 in 7.0 mi Calm Calm - N/A   Clear
8:54 PM 43.0 °F 38.8 °F 34.0 °F 71% 30.06 in 7.0 mi SSE 6.9 mph - N/A   Clear
9:54 PM 43.0 °F 39.5 °F 34.0 °F 71% 30.07 in 7.0 mi South 5.8 mph - N/A   Clear
10:54 PM 41.0 °F 38.0 °F 34.0 °F 76% 30.08 in 6.0 mi South 4.6 mph - N/A   Haze
11:54 PM 41.0 °F 38.0 °F 35.1 °F 79% 30.07 in 7.0 mi SSW 4.6 mph - N/A   Clear